Regional Weather Roundup
Issued by NWS Midland/Odessa, TX

Skip options and go directly to product.
Home | Oldest Version | Next Version | Current Version | All | Text Only | Save Text | Print | Product List | Glossary On

Skip product version selection by date and time.   
094
ASUS44 KMAF 230910
RWRMAF
MIDLAND AREA WEATHER ROUNDUP
NATIONAL WEATHER SERVICE MIDLAND TX
400 AM CDT WED APR 23 2014

...IN SOUTHWEST TEXAS AND SOUTHEAST NEW MEXICO...

CITY           SKY/WX    TMP DP  RH WIND       PRES   REMARKS
ALPINE         CLEAR     66  47  50 S9        29.99F
ANDREWS        FAIR      65  48  53 S14       29.87F
ARTESIA        CLOUDY    66  45  45 SE14G22   29.82F
BIG SPRING     CLEAR     67  48  49 SE17      29.90F
CARLSBAD       CLOUDY    68  44  42 SE12      29.82F
DRYDEN           N/A     74  52  46 E12       29.86F
FORT STOCKTON  PTCLDY    70  51  51 SE21G29   29.85F
GUAD PASS      CLOUDY    65  43  44 S9        29.96F
HOBBS          PTCLDY    63  41  45 SE7       29.88F
MARFA          CLEAR     54  41  62 NE5       29.97F
MIDLAND AIRPK  CLEAR     68  49  50 SE13G21   29.88F
MIDLAND INTL   CLEAR     67  50  54 SE15      29.87F
ODESSA           N/A    N/A N/A N/A MISG      29.87F
PECOS          MOCLDY    62  53  71 E8        29.82F
PRESIDIO       FAIR      74  49  40 NE6       29.83S
SEMINOLE       CLEAR     65  46  51 SE12      29.89F
SNYDER         CLEAR     65  47  53 SE14      29.90F
WINK           PTCLDY    68  47  46 SE12      29.83F
$$
...OTHER STATIONS IN TEXAS...

CITY           SKY/WX    TMP DP  RH WIND       PRES   REMARKS
ABILENE        CLEAR     64  52  64 SE15      29.90F
AMARILLO       CLEAR     63  40  42 S22       29.86F
AUSTIN         CLEAR     57  56  96 CALM      29.92F
BROWNSVILLE    MOCLDY    68  68 100 SE6       29.90F
CORPUS CHRISTI PTCLDY    70  67  90 SE8       29.90F
DALLAS FTW     CLEAR     63  57  81 SE3       29.91F
DEL RIO        CLEAR     74  58  57 E12       29.86S
EL PASO        MOCLDY    74  25  16 SW9       29.83F
HOUSTON INT    PTCLDY    64  63  96 CALM      29.93S
LUBBOCK        PTCLDY    62  44  51 S17       29.88F
SAN ANGELO     CLEAR     67  52  58 SE3       29.89F
SAN ANTONIO    CLEAR     66  61  84 E3        29.93S
WACO           CLEAR     54  54 100 CALM      29.93S
WICHITA FALLS  NOT AVBL
$$
...OTHER LOCATIONS IN NEW MEXICO...

CITY           SKY/WX    TMP DP  RH WIND       PRES   REMARKS
ALAMAGORDO     PTCLDY    70  36  28 S13       29.83F
ALBUQUERQUE    CLOUDY    62  29  28 SE5       29.85S
CANNON AFB     MOCLDY    62  40  44 S16       29.90S
CLOVIS         PTCLDY    59  39  47 S14       29.92F
HOLLOMAN AFB   PTCLDY    68  38  33 S10       29.81F
ROSWELL        CLOUDY    67  44  43 SE15      29.81F
RUIDOSO        PTCLDY    54  34  47 S9        29.98F
SANTA FE       CLOUDY    55  30  38 SE7       29.88S
TRUTH OR CONSE CLEAR     63  26  24 SW6       29.84F
TUCUMCARI      PTCLDY    65  40  39 S26G36    29.80F
$$

USA.gov is the U.S. government's official web portal to all federal, state and local government web resources and services.